Location: Haram ta Haram Freeway
(35.0583°N, 51.4202°E)
Time: 17:46:43
(UTC+03:30)

IRIDIUM 33 DEB - Pass Details

Date: 28 November 2021
Orbit: 663 x 816 km, 86.4° (Epoch: 18 January)

Event Time Altitude Azimuth Distance (km) Brightness Sun altitude
Rises 19:40:09 0° 191° (SSW) 3,334 ? -33.7°
Reaches altitude 10° 19:42:34 10° 196° (SSW) 2,411 ? -34.2°
Enters shadow 19:43:56 18° 200° (SSW) 1,907 ? -34.5°
